Regional Weather Roundup
Issued by NWS

Home | Current Version | Previous Version | Graphics & Text | Print | Product List | Glossary On
Versions: 1 2 3 4 5 6 7 8 9 10 11 12 13 14 15 16 17 18 19 20 21 22 23 24 25 26 27
000
ASUS45 KSLC 230110
RWRUT

UTAH REGIONAL WEATHER ROUNDUP
NATIONAL WEATHER SERVICE SALT LAKE CITY UT
700 PM MDT SUN APR 22 2018

UTZ001>011-023>025-230200-

NORTHERN UTAH

CITY           SKY/WX    TMP DP  RH WIND       PRES   REMARKS
BRIGHAM CITY   MOSUNNY   73  18  12 CALM      29.94F
HILL AFB       SUNNY     71  28  20 CALM      29.96F
LOGAN          MOSUNNY   75  30  19 SW7       29.95F
OGDEN          SUNNY     72  25  17 VRB6      29.94F
SALT LAKE CITY PTSUNNY   75  29  18 SE5       29.92F
TOOELE VALLEY  MOSUNNY   73  36  25 CALM      29.93F
WENDOVER       MOSUNNY   74  25  16 E9        29.90F
HEBER CITY       N/A     68  23  18 SW9       29.99F
WEST JORDAN    MOSUNNY   71  36  28 N5        29.96F

$$

UTZ011>015-024>027-230200-

CENTRAL/NORTHEAST UTAH

CITY           SKY/WX    TMP DP  RH WIND       PRES   REMARKS
PROVO AIRPORT  MOSUNNY   73  28  18 W3        29.96F
MOAB/CANYONLAN MOSUNNY   73  24  16 W3        29.95F
DELTA          SUNNY     72  21  15 SW3       29.96F
PRICE          PTSUNNY   70  24  17 S8        30.02S
RICHFIELD      SUNNY     70  21  16 W7G13     29.99
ROOSEVELT      MOSUNNY   70  27  19 SE8       30.01S
VERNAL         SUNNY     70  23  17 S3        29.99F

$$

UTZ013>016-019>022-027-230200-

SOUTHERN UTAH

CITY           SKY/WX    TMP DP  RH WIND       PRES   REMARKS
BRYCE CANYON   PTSUNNY   63  24  22 NW7       30.13S
CEDAR CITY     MOSUNNY   70  23  17 SW8       30.00S
MILFORD          N/A     72  26  18 S3        29.96F
ST GEORGE      PTCLDY    84  23  10 W8        29.86F
HANKSVILLE     MOSUNNY   75  27  16 CALM      29.97S
KANAB          SUNNY     75  16  10 N2        30.00
BLANDING         N/A     68  25  20 SW9       30.11F

$$

REGIONAL REPORTS     COLORADO/ARIZONA

CITY           SKY/WX    TMP DP  RH WIND       PRES   REMARKS
CRAIG, CO      PTCLDY    65  32  29 W6        30.06F
GRAND JUNCTION PTSUNNY   71  27  19 NW5       29.98F
RIFLE, CO      PTCLDY    67  32  27 SE3       30.02F
MONTROSE, CO   PTCLDY    68  20  16 NW6       30.04F
CORTEZ, CO     PTSUNNY   68  20  16 W8        30.04F
COLORADO CITY    N/A     79  21  11 NW7       30.00S
PAGE, AZ       MOSUNNY   77  20  12 NE8       29.94F
GRAND CANYON   MOSUNNY   70  13  11 W8        30.09R
KINGMAN, AZ    SUNNY     82  23  11 SW13      29.92S
FLAGSTAFF, AZ  MOSUNNY   65  17  15 SW10      30.11S

$$

REGIONAL REPORTS    NEVADA/IDAHO/WYOMING

CITY           SKY/WX    TMP DP  RH WIND       PRES   REMARKS
LAS VEGAS, NV  MOSUNNY   90  20   7 SE3       29.81F
ELY, NY        MOSUNNY   69  18  14 SW12      30.00S
ELKO, NV       PTSUNNY   71  32  23 W17       29.93S
POCATELLO, ID  MOSUNNY   66  41  40 NW5       29.93F
BURLEY, ID     PTSUNNY   60  36  40 W12G22    29.95S
FORT BRIDGER,    N/A     67  17  15 W14       30.09S
EVANSTON, WY   MOSUNNY   62  22  21 W16       30.07F
ROCK SPRINGS,  SUNNY     63  17  17 SW8       30.06F
KEMMERER, WY   MOSUNNY   63  21  20 W12       30.08S

$$




USA.gov is the U.S. government's official web portal to all federal, state and local government web resources and services.